Location: Unspecified
(0.0000°N, 0.0000°E)
Time: 17:53:28
(UTC+00:00)

COSMOS 2416 - Pass Details

Date: 23 May 2026
Orbit: 1436 x 1449 km, 82.5° (Epoch: 10 June)

Event Time Altitude Azimuth Distance (km) Brightness Sun altitude
Rises 18:48:28 0° 326° (NW) 4,517 10.3 -12.1°
Reaches altitude 10° 18:52:16 10° 310° (NW) 3,541 10.0 -13.0°
Maximum altitude 18:57:58 20° 267° (W) 2,836 9.1 -14.3°
Drops below altitude 10° 19:03:43 10° 223° (SW) 3,545 9.0 -15.6°
Sets 19:07:36 0° 207° (SSW) 4,525 9.3 -16.5°
